Plattsmouth, NE

2:35 AM CST on December 13, 2017 (GMT -0600)
Plattsmouth Municipal

Weather History for KPMV - August, 2013

Change the Weather History Date:

Monday, August 26, 2013

  Actual Average (KOFF) Record (KOFF)
Temperature  
Mean Temperature 84 °F -  
Max Temperature 96 °F 82 °F 97 °F (2013)
Min Temperature 72 °F 64 °F 53 °F (2015)
Cooling Degree Days 19    
Growing Degree Days 34 (Base 50)    
Moisture  
Dew Point 69 °F    
Average Humidity 64    
Maximum Humidity 90    
Minimum Humidity 38    
Precipitation  
Precipitation 0.00 in - - ()
Sea Level Pressure  
Sea Level Pressure 30.05 in    
Wind  
Wind Speed 11 mph (South)    
Max Wind Speed 18 mph    
Max Gust Speed 24 mph    
Visibility 10 miles    
Events      
Averages and records for this station are not official NWS values.
T = Trace of Precipitation, MM = Missing Value Source: NWS Daily Summary

Daily Weather History Graph

Daily Weather History Graph

Search for Another Location

Airport or City:

Trip Planner

Search our weather history database for the weather conditions in past years. The results will help you decide how hot, cold, wet, or windy it might be!

Date:

Astronomy

Aug. 26, 2013 Rise Set
Actual Time 6:44 AM CDT 8:05 PM CDT
Civil Twilight 6:16 AM CDT 8:33 PM CDT
Nautical Twilight 5:41 AM CDT 9:07 PM CDT
Astronomical Twilight 5:05 AM CDT 9:44 PM CDT
Moon 11:13 PM CDT (8/26) 12:50 PM CDT (8/26)
Length of Visible Light 14h 17m
Length of Day
13h 20m
Waning Gibbous, 66% of the Moon is Illuminated
Aug 26
Waning Gibbous
Aug 28
Last Quarter
Sep 5
New
Sep 12
First Quarter
Sep 19
Full

Hourly Weather History & Observations

Time (CDT) Temp. Heat Index Dew Point Humidity Pressure Visibility Wind Dir Wind Speed Gust Speed Precip Events Conditions
12:15 AM 78.8 °F - 69.8 °F 74% 30.11 in 10.0 mi South 10.4 mph - N/A   Clear
12:35 AM 78.3 °F - 69.6 °F 75% 30.11 in 10.0 mi South 10.4 mph - N/A   Clear
12:55 AM 77.5 °F - 69.8 °F 77% 30.11 in 10.0 mi South 10.4 mph - N/A   Clear
1:15 AM 77.5 °F - 69.4 °F 76% 30.11 in 10.0 mi South 10.4 mph - N/A   Clear
1:35 AM 77.0 °F - 69.3 °F 77% 30.11 in 10.0 mi South 10.4 mph - N/A   Clear
1:55 AM 76.5 °F - 69.3 °F 78% 30.11 in 10.0 mi South 9.2 mph - N/A   Clear
2:15 AM 76.1 °F - 69.3 °F 79% 30.11 in 10.0 mi South 9.2 mph - N/A   Clear
2:35 AM 75.7 °F - 69.3 °F 80% 30.10 in 10.0 mi South 9.2 mph - N/A   Clear
2:55 AM 75.7 °F - 69.3 °F 80% 30.10 in 10.0 mi South 9.2 mph - N/A   Clear
3:15 AM 75.2 °F - 69.3 °F 82% 30.10 in 10.0 mi South 10.4 mph - N/A   Clear
3:35 AM 74.7 °F - 69.3 °F 83% 30.10 in 10.0 mi South 10.4 mph - N/A   Clear
3:55 AM 74.5 °F - 69.3 °F 84% 30.10 in 10.0 mi South 10.4 mph - N/A   Clear
4:15 AM 74.3 °F - 69.3 °F 84% 30.10 in 10.0 mi South 10.4 mph - N/A   Clear
4:35 AM 73.9 °F - 69.3 °F 85% 30.09 in 10.0 mi South 10.4 mph - N/A   Clear
4:55 AM 73.6 °F - 69.4 °F 87% 30.10 in 10.0 mi South 9.2 mph - N/A   Clear
5:15 AM 73.4 °F - 69.3 °F 87% 30.10 in 10.0 mi South 8.1 mph - N/A   Clear
5:35 AM 73.4 °F - 69.3 °F 87% 30.10 in 10.0 mi South 6.9 mph - N/A   Clear
5:55 AM 72.9 °F - 69.4 °F 89% 30.10 in 10.0 mi SSE 6.9 mph - N/A   Clear
6:15 AM 72.9 °F - 69.4 °F 89% 30.10 in 10.0 mi South 8.1 mph - N/A   Clear
6:35 AM 72.9 °F - 69.4 °F 89% 30.11 in 10.0 mi South 6.9 mph - N/A   Clear
6:55 AM 72.7 °F - 69.4 °F 90% 30.11 in 10.0 mi South 8.1 mph - N/A   Clear
7:15 AM 72.7 °F - 69.6 °F 90% 30.11 in 10.0 mi South 6.9 mph - N/A   Clear
7:35 AM 73.0 °F - 69.8 °F 90% 30.11 in 10.0 mi South 8.1 mph - N/A   Clear
7:55 AM 74.3 °F - 70.2 °F 87% 30.10 in 10.0 mi South 10.4 mph - N/A   Clear
8:15 AM 75.6 °F - 70.7 °F 85% 30.10 in 10.0 mi South 10.4 mph - N/A   Clear
8:35 AM 77.0 °F - 70.9 °F 81% 30.10 in 10.0 mi South 11.5 mph 16.1 mph N/A   Clear
8:55 AM 78.4 °F - 71.1 °F 78% 30.10 in 10.0 mi South 11.5 mph - N/A   Clear
9:15 AM 80.1 °F 83.6 °F 71.2 °F 74% 30.10 in 10.0 mi South 9.2 mph - N/A   Clear
9:35 AM 81.9 °F 86.2 °F 71.2 °F 70% 30.10 in 10.0 mi South 13.8 mph 18.4 mph N/A   Clear
9:55 AM 83.5 °F 88.2 °F 71.2 °F 66% 30.10 in 10.0 mi South 16.1 mph 21.9 mph N/A   Clear
10:15 AM 85.1 °F 90.1 °F 70.9 °F 62% 30.09 in 10.0 mi South 17.3 mph - N/A   Clear
10:35 AM 86.5 °F 92.1 °F 71.1 °F 60% 30.08 in 10.0 mi South 13.8 mph 18.4 mph N/A   Clear
10:55 AM 88.0 °F 93.4 °F 70.7 °F 56% 30.08 in 10.0 mi South 13.8 mph - N/A   Clear
11:15 AM 88.9 °F 93.8 °F 69.8 °F 53% 30.09 in 10.0 mi South 15.0 mph 19.6 mph N/A   Clear
11:35 AM 89.1 °F 93.7 °F 69.4 °F 52% 30.08 in 10.0 mi South 15.0 mph 18.4 mph N/A   Clear
11:55 AM 90.0 °F 94.5 °F 68.9 °F 50% 30.08 in 10.0 mi South 13.8 mph 18.4 mph N/A   Clear
12:15 PM 91.4 °F 95.8 °F 68.5 °F 47% 30.07 in 10.0 mi SSW 16.1 mph 21.9 mph N/A   Clear
12:35 PM 91.9 °F 97.4 °F 69.4 °F 48% 30.07 in 10.0 mi SSW 11.5 mph 20.7 mph N/A   Clear
12:55 PM 92.5 °F 96.9 °F 68.5 °F 45% 30.06 in 10.0 mi SSW 16.1 mph - N/A   Clear
1:15 PM 93.6 °F 98.4 °F 68.9 °F 44% 30.06 in 10.0 mi South 17.3 mph 21.9 mph N/A   Clear
1:35 PM 93.7 °F 98.8 °F 68.7 °F 44% 30.05 in 10.0 mi SSW 16.1 mph 23.0 mph N/A   Clear
1:55 PM 94.5 °F 99.6 °F 68.7 °F 43% 30.04 in 10.0 mi South 16.1 mph 20.7 mph N/A   Clear
2:15 PM 95.2 °F 100.5 °F 68.9 °F 42% 30.04 in 10.0 mi South 17.3 mph 21.9 mph N/A   Clear
2:35 PM 95.5 °F 100.6 °F 68.5 °F 41% 30.03 in 10.0 mi SSW 12.7 mph 23.0 mph N/A   Clear
2:55 PM 95.5 °F 100.0 °F 67.6 °F 40% 30.03 in 10.0 mi SSW 18.4 mph - N/A   Clear
3:15 PM 96.1 °F 101.6 °F 68.7 °F 41% 30.02 in 10.0 mi South 17.3 mph - N/A   Clear
3:35 PM 96.4 °F 101.7 °F 68.2 °F 40% 30.02 in 10.0 mi South 11.5 mph - N/A   Clear
3:55 PM 95.9 °F 100.1 °F 67.3 °F 39% 30.01 in 10.0 mi SSW 12.7 mph - N/A   Clear
4:15 PM 95.9 °F 99.6 °F 66.7 °F 38% 30.01 in 10.0 mi SSW 12.7 mph 21.9 mph N/A   Clear
4:35 PM 95.9 °F 100.1 °F 67.3 °F 39% 30.01 in 10.0 mi SSW 16.1 mph 19.6 mph N/A   Clear
4:55 PM 95.0 °F 99.5 °F 67.8 °F 41% 30.01 in 10.0 mi South 13.8 mph 21.9 mph N/A   Clear
5:15 PM 95.0 °F 99.0 °F 67.5 °F 40% 30.01 in 10.0 mi South 13.8 mph 20.7 mph N/A   Clear
5:35 PM 94.3 °F 98.2 °F 66.9 °F 41% 30.01 in 10.0 mi SSW 12.7 mph 21.9 mph N/A   Clear
5:55 PM 94.1 °F 98.4 °F 67.8 °F 42% 30.01 in 10.0 mi South 16.1 mph 24.2 mph N/A   Clear
6:15 PM 93.6 °F 97.9 °F 67.8 °F 43% 30.01 in 10.0 mi South 13.8 mph 20.7 mph N/A   Clear
6:35 PM 92.7 °F 97.7 °F 68.9 °F 46% 30.00 in 10.0 mi South 12.7 mph - N/A   Clear
6:55 PM 91.4 °F 96.3 °F 69.3 °F 48% 30.00 in 10.0 mi South 11.5 mph - N/A   Clear
7:15 PM 90.3 °F 94.7 °F 68.7 °F 49% 29.99 in 10.0 mi South 13.8 mph - N/A   Clear
7:35 PM 88.9 °F 93.4 °F 69.1 °F 52% 30.00 in 10.0 mi SSE 9.2 mph - N/A   Clear
7:55 PM 87.3 °F 92.0 °F 69.6 °F 56% 29.99 in 10.0 mi SSE 9.2 mph - N/A   Clear
8:15 PM 85.3 °F 89.8 °F 69.8 °F 60% 29.99 in 10.0 mi SSE 9.2 mph - N/A   Clear
8:35 PM 84.2 °F 88.4 °F 69.8 °F 62% 29.99 in 10.0 mi South 9.2 mph - N/A   Clear
8:55 PM 83.5 °F 87.4 °F 69.6 °F 63% 29.99 in 10.0 mi SSE 10.4 mph - N/A   Clear
9:15 PM 83.3 °F 86.9 °F 68.9 °F 62% 29.98 in 10.0 mi South 11.5 mph - N/A   Clear
9:35 PM 82.8 °F 86.2 °F 68.9 °F 63% 29.98 in 10.0 mi South 11.5 mph - N/A   Clear
9:55 PM 82.4 °F 85.4 °F 68.4 °F 62% 29.98 in 10.0 mi South 12.7 mph - N/A   Clear
10:15 PM 82.4 °F 85.4 °F 68.2 °F 62% 29.98 in 10.0 mi South 12.7 mph - N/A   Clear
10:35 PM 81.7 °F 84.5 °F 68.2 °F 63% 29.98 in 10.0 mi South 13.8 mph - N/A   Clear
10:55 PM 81.5 °F 84.2 °F 68.0 °F 63% 29.98 in 10.0 mi South 12.7 mph - N/A   Clear
11:15 PM 80.8 °F 83.5 °F 68.0 °F 65% 29.98 in 10.0 mi South 12.7 mph 18.4 mph N/A   Clear
11:35 PM 80.8 °F 83.3 °F 67.5 °F 64% 29.99 in 10.0 mi South 13.8 mph - N/A   Clear
11:55 PM 80.4 °F 83.0 °F 67.5 °F 65% 29.99 in 10.0 mi South 11.5 mph - N/A   Clear